This is the latest recevied weather packets stored in our database for station/object IU3NMQ-10. If no packets are shown the sender has not sent any weather packets the latest 10 day(s).
| Time | Temp. | Humidity | Pressure | Rain* | Wind** | Luminosity | Snow |
|---|---|---|---|---|---|---|---|
| 1777469073 | 21.11° C | 61% | 1014.8 hPa | - | - | - | - |
| 1777468173 | 21.67° C | 60% | 1014.7 hPa | - | - | - | - |
| 1777467273 | 21.11° C | 60% | 1014.8 hPa | - | - | - | - |
| 1777466373 | 21.11° C | 60% | 1014.7 hPa | - | - | - | - |
| 1777465473 | 21.67° C | 57% | 1014.7 hPa | - | - | - | - |
| 1777464573 | 22.22° C | 56% | 1014.6 hPa | - | - | - | - |
| 1777463672 | 22.78° C | 55% | 1014.6 hPa | - | - | - | - |
| 1777462772 | 22.22° C | 56% | 1014.7 hPa | - | - | - | - |
| 1777461872 | 21.67° C | 55% | 1014.8 hPa | - | - | - | - |
| 1777460972 | 21.11° C | 55% | 1014.8 hPa | - | - | - | - |
| 1777460072 | 21.67° C | 56% | 1014.8 hPa | - | - | - | - |
| 1777459172 | 21.67° C | 56% | 1014.8 hPa | - | - | - | - |
| 1777458307 | 21.67° C | 56% | 1014.8 hPa | - | - | - | - |
| 1777458272 | 21.67° C | 56% | 1014.8 hPa | - | - | - | - |
| 1777457372 | 22.22° C | 56% | 1014.9 hPa | - | - | - | - |
| 1777456472 | 22.78° C | 56% | 1014.9 hPa | - | - | - | - |
| 1777455571 | 21.67° C | 58% | 1014.8 hPa | - | - | - | - |
| 1777454671 | 21.67° C | 58% | 1014.7 hPa | - | - | - | - |
| 1777453771 | 21.11° C | 59% | 1014.6 hPa | - | - | - | - |
| 1777452871 | 21.11° C | 59% | 1014.6 hPa | - | - | - | - |
| 1777451971 | 20.56° C | 59% | 1014.7 hPa | - | - | - | - |
| 1777451071 | 21.11° C | 59% | 1014.5 hPa | - | - | - | - |
| 1777450171 | 21.11° C | 59% | 1014.4 hPa | - | - | - | - |
| 1777449271 | 20.56° C | 60% | 1014.3 hPa | - | - | - | - |
| 1777448371 | 20° C | 61% | 1014.3 hPa | - | - | - | - |
* Rain since midnight (hover to see other rain measurements)
** Current wind speed in m/s (hover to see current wind gust speed)